TimeICT,TemperatureF,Dew PointF,Humidity,Sea Level PressureIn,VisibilityMPH,Wind Direction,Wind SpeedMPH,Gust SpeedMPH,PrecipitationIn,Events,Conditions,WindDirDegrees,DateUTC
12:00 AM,77.0,75.2,94,29.86,5.6,Calm,Calm,-,N/A,,Mostly Cloudy,0,2013-02-26 17:00:00
12:30 AM,77.0,73.4,89,29.86,5.6,Calm,Calm,-,N/A,,Mostly Cloudy,0,2013-02-26 17:30:00
1:00 AM,78,76,93,29.81,6,Calm,Calm,,,,Scattered Clouds,,2013-02-26 18:00:00
1:00 AM,77.0,75.2,94,29.86,5.6,Calm,Calm,-,N/A,,Mostly Cloudy,0,2013-02-26 18:00:00
1:30 AM,77.0,73.4,89,29.86,5.6,Calm,Calm,-,N/A,,Mostly Cloudy,0,2013-02-26 18:30:00
2:00 AM,77.0,75.2,94,29.83,5.6,Calm,Calm,-,N/A,,Mostly Cloudy,0,2013-02-26 19:00:00
2:30 AM,77.0,73.4,89,29.83,5.6,Calm,Calm,-,N/A,,Mostly Cloudy,0,2013-02-26 19:30:00
3:00 AM,77.0,73.4,89,29.83,5.6,Calm,Calm,-,N/A,,Mostly Cloudy,0,2013-02-26 20:00:00
3:30 AM,75.2,73.4,94,29.83,5.6,Calm,Calm,-,N/A,,Mostly Cloudy,0,2013-02-26 20:30:00
4:00 AM,75.2,73.4,94,29.83,5.6,Calm,Calm,-,N/A,,Mostly Cloudy,0,2013-02-26 21:00:00
4:30 AM,75.2,73.4,94,29.80,5.6,Calm,Calm,-,N/A,,Mostly Cloudy,0,2013-02-26 21:30:00
5:00 AM,75.2,73.4,94,29.80,5.6,Calm,Calm,-,N/A,,Mostly Cloudy,0,2013-02-26 22:00:00
5:20 AM,75.2,73.4,94,29.83,5.6,Calm,Calm,-,N/A,,Mostly Cloudy,0,2013-02-26 22:20:00
6:30 AM,75.2,73.4,94,29.83,5.6,East,3.5,-,N/A,,Mostly Cloudy,100,2013-02-26 23:30:00
7:00 AM,77,76,94,29.81,5,Calm,Calm,,,,Mist,,2013-02-27 00:00:00
7:00 AM,77.0,73.4,89,29.83,5.6,Variable,2.3,-,N/A,,Mostly Cloudy,0,2013-02-27 00:00:00
7:30 AM,77.0,73.4,89,29.83,5.6,NE,2.3,-,N/A,,Mostly Cloudy,50,2013-02-27 00:30:00
8:00 AM,78.8,75.2,89,29.83,5.6,Calm,Calm,-,N/A,,Mostly Cloudy,0,2013-02-27 01:00:00
8:30 AM,84.2,73.4,70,29.86,5.6,East,4.6,-,N/A,,Mostly Cloudy,80,2013-02-27 01:30:00
9:00 AM,86.0,73.4,66,29.86,5.6,NE,6.9,-,N/A,,Mostly Cloudy,50,2013-02-27 02:00:00
9:30 AM,86.0,73.4,66,29.86,5.6,East,6.9,-,N/A,,Mostly Cloudy,80,2013-02-27 02:30:00
10:00 AM,87.8,71.6,58,29.86,5.6,East,9.2,-,N/A,,Mostly Cloudy,90,2013-02-27 03:00:00
10:30 AM,87.8,69.8,55,29.86,5.6,East,12.7,-,N/A,,Mostly Cloudy,80,2013-02-27 03:30:00
11:00 AM,87.8,71.6,58,29.86,5.6,ENE,10.4,-,N/A,,Mostly Cloudy,70,2013-02-27 04:00:00
11:30 AM,87.8,71.6,58,29.86,5.6,East,12.7,-,N/A,,Mostly Cloudy,90,2013-02-27 04:30:00
12:00 PM,89.6,71.6,55,29.83,5.6,East,11.5,-,N/A,,Mostly Cloudy,90,2013-02-27 05:00:00
12:30 PM,87.8,69.8,55,29.83,5.6,ESE,10.4,-,N/A,,Mostly Cloudy,120,2013-02-27 05:30:00
1:00 PM,88,73,54,29.81,6,ESE,5.8,,,,Mist,110,2013-02-27 06:00:00
1:00 PM,87.8,71.6,58,29.83,5.6,East,13.8,-,N/A,,Mostly Cloudy,90,2013-02-27 06:00:00
2:00 PM,87.8,71.6,58,29.80,5.6,ESE,6.9,-,N/A,,Mostly Cloudy,110,2013-02-27 07:00:00
2:30 PM,91.4,71.6,52,29.77,5.6,ENE,5.8,-,N/A,,Mostly Cloudy,70,2013-02-27 07:30:00
3:00 PM,87.8,71.6,58,29.77,5.0,ESE,6.9,-,N/A,,Mostly Cloudy,110,2013-02-27 08:00:00
3:30 PM,87.8,73.4,62,29.77,4.3,East,9.2,-,N/A,Rain,Rain,100,2013-02-27 08:30:00
4:00 PM,78.8,73.4,83,29.77,4.3,ESE,12.7,-,N/A,Rain,Rain,110,2013-02-27 09:00:00
4:30 PM,78.8,73.4,83,29.77,4.3,East,10.4,-,N/A,,Mostly Cloudy,100,2013-02-27 09:30:00
5:00 PM,78.8,73.4,83,29.77,5.0,ENE,6.9,-,N/A,,Mostly Cloudy,60,2013-02-27 10:00:00
5:30 PM,80.6,73.4,79,29.77,5.0,Variable,2.3,-,N/A,,Mostly Cloudy,0,2013-02-27 10:30:00
6:00 PM,78.8,73.4,83,29.77,5.0,Variable,2.3,-,N/A,,Mostly Cloudy,0,2013-02-27 11:00:00
6:30 PM,78.8,73.4,83,29.77,5.0,Variable,3.5,-,N/A,,Mostly Cloudy,0,2013-02-27 11:30:00
7:00 PM,79,75,85,29.77,5,Calm,Calm,,,,Mist,,2013-02-27 12:00:00
7:00 PM,77.0,73.4,89,29.77,5.0,Calm,Calm,-,N/A,,Mostly Cloudy,0,2013-02-27 12:00:00
7:30 PM,77.0,73.4,89,29.80,5.0,Calm,Calm,-,N/A,,Mostly Cloudy,0,2013-02-27 12:30:00
8:00 PM,77.0,73.4,89,29.80,5.0,Calm,Calm,-,N/A,,Mostly Cloudy,0,2013-02-27 13:00:00
8:30 PM,78.8,73.4,83,29.80,6.2,Calm,Calm,-,N/A,,Scattered Clouds,0,2013-02-27 13:30:00
9:00 PM,77.0,73.4,89,29.83,6.2,Calm,Calm,-,N/A,,Scattered Clouds,0,2013-02-27 14:00:00
9:30 PM,75.2,73.4,94,29.83,6.2,Calm,Calm,-,N/A,,Scattered Clouds,0,2013-02-27 14:30:00
10:00 PM,77.0,73.4,89,29.83,6.2,Calm,Calm,-,N/A,,Scattered Clouds,0,2013-02-27 15:00:00
10:30 PM,77.0,73.4,89,29.86,6.2,Calm,Calm,-,N/A,,Scattered Clouds,0,2013-02-27 15:30:00
11:30 PM,77.0,73.4,89,29.86,6.2,Calm,Calm,-,N/A,,Mostly Cloudy,0,2013-02-27 16:30:00